Regional Weather Roundup
Issued by NWS Jackson, KY

Home | Current Version | Previous Version | Graphics & Text | Print | Product List | Glossary On
Versions: 1 2 3 4 5 6 7 8 9 10 11 12 13 14 15 16 17 18 19 20 21 22 23 24 25 26 27 28 29 30 31 32 33 34 35 36 37 38 39 40 41 42 43 44 45 46 47 48 49 50
511
ASUS43 KJKL 221510
RWRJKL

EAST KENTUCKY HOURLY WEATHER ROUNDUP
NATIONAL WEATHER SERVICE JACKSON KY
1100 AM EDT WED MAR 22 2017

NOTE: "FAIR" INDICATES FEW OR NO CLOUDS BELOW 12,000 FEET WITH
NO SIGNIFICANT WEATHER AND/OR OBSTRUCTIONS TO VISIBILITY.

* THESE REPORTS ARE NOT UNDER NWS QUALITY CONTROL AND MAY NOT
  REPORT WEATHER SUCH AS PRECIPITATION AND FOG.

KYZ079-080-083-085-087-088-110-112-115-119-120-221600
...EASTERN KENTUCKY...

CITY           SKY/WX    TMP DP  RH WIND       PRES   REMARKS
JACKSON        SUNNY     40  22  48 NE6       30.36R
LONDON         SUNNY     42  22  44 NE8G17    30.34R
SOMERSET*      SUNNY     37  19  48 N7G16     30.38R WCI  32
WILLIAMSBURG*  SUNNY     41  25  52 NE10      30.33R
MIDDLESBORO*   MOSUNNY   47  25  42 NE9       30.30S
HARLAN APT*    SUNNY     43  23  45 N8        30.30R
PIKE CO APT*     N/A     37  23  58 N7        30.34R WCI  31
BIG SANDY APT* SUNNY     39  23  52 NE6G16    30.37R
MOREHEAD APT*  SUNNY     36  16  44 N8        30.43R WCI  29
ASHLAND*       SUNNY     37  21  52 NE8       30.43R WCI  31
$$

KYZ035-036-041-042-044-050-067-078-099-221600
...CENTRAL KENTUCKY...

CITY           SKY/WX    TMP DP  RH WIND       PRES   REMARKS
MT STERLING*   SUNNY     34  21  60 NE8G18    30.43R WCI  27
FLEMING/MASON* SUNNY     33  19  55 NE13G20   30.45R WCI  24
DANVILLE*      SUNNY     37  21  52 NE13      30.41R WCI  29
LEXINGTON      SUNNY     38  17  42 NE16      30.42R WCI  29
FRANKFORT      SUNNY     39  15  37 NE10      30.43R WCI  32
LOUISVILLE     MOSUNNY   41  11  29 NE16G22   30.46R
LEBANON*         N/A     39  16  38 NE9       30.41R WCI  33
GLASGOW*       MOSUNNY   42  24  48 NE12G17   30.38S
BOWLING GREEN  SUNNY     46  23  40 NE12      30.39R
$$

KYZ091>093-OHZ055-061-077-WVZ005-015-034-035-042-221600
...SOUTHERN OHIO/WEST VIRGINIA...

CITY           SKY/WX    TMP DP  RH WIND       PRES   REMARKS
COVINGTON      SUNNY     33  17  51 NE12      30.47R WCI  24
COLUMBUS       MOSUNNY   33  16  49 NE14      30.48R WCI  23
DAYTON         MOSUNNY   28  15  58 N15       30.50R WCI  16
WILMINGTON     MOSUNNY   29  19  66 NE14      30.47R WCI  18
HUNTINGTON     SUNNY     36  19  50 N8G18     30.41R WCI  30
CHARLESTON     MOSUNNY   37  22  54 NE10      30.38R WCI  30
PINEVILLE*     MOSUNNY   40  22  46 MISG      30.34R
BECKLEY        MOSUNNY   34  22  61 N16G22    30.26R WCI  24
BLUEFIELD      SUNNY     34  22  61 NW10      30.23R WCI  26
LOGAN CO APT*  PTSUNNY   36  23  60 N7G14     30.33R WCI  30
$$

VAZ002-007-008-TNZ017-027-036-066-071-221600
...SOUTHWEST VIRGINIA/EAST TENNESSEE...

CITY           SKY/WX    TMP DP  RH WIND       PRES   REMARKS
WISE*          SUNNY     37  23  56 N10G18    30.27R WCI  30
JONESVILLE*      N/A     46  23  39 NW6       30.30R
ABINGDON*      MOSUNNY   45  24  45 N7        30.23R
BRISTOL        PTSUNNY   48  25  40 N9        30.26R
MORRISTOWN*    SUNNY     50  27  40 N8        30.25R
SEVIERVILLE*   SUNNY     52  32  46 E8        30.24S
KNOXVILLE      PTSUNNY   52  31  44 N10       30.25R
LAFOLLETTE*    SUNNY     46  25  42 VRB7G15   30.32R
OAK RIDGE      SUNNY     51  21  30 VRB6      30.29R
CROSSVILLE     SUNNY     44  24  45 N15       30.27R
NASHVILLE      PTSUNNY   50  28  42 NE17      30.34R
$$

...KEY TO REMARKS...
VSB - VISIBILITY IN MILES
WCI - WIND CHILL INDEX
HX  - HEAT INDEX

$$




USA.gov is the U.S. government's official web portal to all federal, state and local government web resources and services.